Regional Weather Roundup
Issued by NWS

Home | Current Version | Previous Version | Graphics & Text | Print | Product List | Glossary On
Versions: 1 2 3 4 5 6 7 8 9 10 11 12 13 14 15 16 17 18 19 20 21 22 23 24 25 26 27 28 29 30 31 32 33 34 35 36 37 38 39 40 41 42 43 44 45 46 47 48 49 50
000
ASUS43 KLMK 020110
RWRKY
KENTUCKY REGIONAL WEATHER ROUNDUP
NATIONAL WEATHER SERVICE LOUISVILLE KY
800 PM EST SUN FEB 01 2015

NOTE "FAIR" INDICATES FEW OR NO CLOUDS BELOW 12,000 FEET
WITH NO SIGNIFICANT WEATHER AND/OR OBSTRUCTIONS TO VISIBILITY.

KYZ001>023-026-027-061>063-070>075-020200-
WESTERN AND SOUTH CENTRAL KENTUCKY

CITY           SKY/WX    TMP DP  RH WIND       PRES   REMARKS
PADUCAH        LGT RAIN  48  43  82 W12       29.69R
HENDERSON      CLOUDY    45  41  87 W16       29.65S
OWENSBORO      CLOUDY    47  44  89 W12       29.64R
HOPKINSVILLE   CLOUDY    50  47  90 W14       29.66S
BOWLING GREEN  LGT RAIN  53  51  93 W12       29.63S FOG
GLASGOW        RAIN      52  52 100 SW9       29.61F
$$

KYZ024-025-028>034-038-045-046-053-020200-
NORTH CENTRAL KENTUCKY

CITY           SKY/WX    TMP DP  RH WIND       PRES   REMARKS
LOUISVILLE/SDF LGT RAIN  50  48  93 W13       29.57F FOG
LOUISVILLE/LOU LGT RAIN  50  48  93 SW8       29.58F FOG
FORT KNOX      LGT RAIN  50  48  94 W10G25    29.58R
$$

KYZ035>037-039>044-047>052-055>060-089>105-020200-
NORTHEAST KENTUCKY

CITY           SKY/WX    TMP DP  RH WIND       PRES   REMARKS
LEXINGTON      LGT RAIN  48  46  93 S12       29.59F
COVINGTON      LGT RAIN  46  44  93 SW8       29.55F FOG
FRANKFORT      LGT RAIN  49  47  93 S12       29.56F
$$

KYZ054-064>069-076>088-106>120-020200-
SOUTHEAST KENTUCKY

CITY           SKY/WX    TMP DP  RH WIND       PRES   REMARKS
JACKSON        LGT RAIN  46  44  93 VRB6      29.63F
LONDON         RAIN      50  46  86 S12       29.65F FOG
SOMERSET       RAIN      48  48 100 SW8       29.66S
MIDDLESBORO    LGT RAIN  43  43  99 SE3       29.72F
MONTICELLO     CLOUDY    54  50  87 S13       29.67S FOG
$$



USA.gov is the U.S. government's official web portal to all federal, state and local government web resources and services.